Time,TemperatureF,DewpointF,PressureIn,WindDirection,WindDirectionDegrees,WindSpeedMPH,WindSpeedGustMPH,Humidity,HourlyPrecipIn,Conditions,Clouds,dailyrainin,SoftwareType,DateUTC
2014-07-24 00:01:00,72.9,72.0,29.68,SSW,212,5.4,8.3,97,0.00,,---,0.00,VWS V14.01,2014-07-24 04:01:00,
2014-07-24 00:06:00,72.7,71.8,29.68,SW,218,11.6,11.6,97,0.00,,---,0.00,VWS V14.01,2014-07-24 04:06:00,
2014-07-24 00:11:00,72.9,72.0,29.68,SW,230,3.1,8.3,97,0.00,,---,0.00,VWS V14.01,2014-07-24 04:11:00,
2014-07-24 00:16:00,73.2,72.3,29.68,WSW,255,12.1,12.5,97,0.00,,---,0.00,VWS V14.01,2014-07-24 04:16:00,
2014-07-24 00:21:00,73.4,72.2,29.65,SW,235,7.8,11.2,96,0.00,,---,0.00,VWS V14.01,2014-07-24 04:21:00,
2014-07-24 00:26:00,73.8,72.6,29.65,SW,215,10.1,10.5,96,0.00,,---,0.00,VWS V14.01,2014-07-24 04:26:00,
2014-07-24 00:31:00,73.9,72.4,29.65,SW,227,8.3,12.1,95,0.00,,---,0.00,VWS V14.01,2014-07-24 04:31:00,
2014-07-24 00:36:00,73.9,71.8,29.65,WSW,243,11.0,11.0,93,0.00,,---,0.00,VWS V14.01,2014-07-24 04:36:00,
2014-07-24 00:41:00,73.8,71.3,29.65,SW,228,6.3,6.9,92,0.00,,---,0.00,VWS V14.01,2014-07-24 04:41:00,
2014-07-24 00:46:00,73.6,71.1,29.65,SW,232,2.7,6.7,92,0.00,,---,0.00,VWS V14.01,2014-07-24 04:46:00,
2014-07-24 00:51:00,73.6,71.1,29.65,WSW,244,5.4,8.3,92,0.00,,---,0.00,VWS V14.01,2014-07-24 04:51:00,
2014-07-24 00:56:00,73.4,70.9,29.65,WSW,237,3.1,5.8,92,0.00,,---,0.00,VWS V14.01,2014-07-24 04:56:00,
2014-07-24 01:01:00,73.2,70.8,29.65,SSW,204,4.9,6.3,92,0.00,,---,0.00,VWS V14.01,2014-07-24 05:01:00,
2014-07-24 01:06:00,73.0,70.6,29.62,SW,217,4.9,6.9,92,0.00,,---,0.00,VWS V14.01,2014-07-24 05:06:00,
2014-07-24 01:11:00,73.0,70.6,29.62,SW,218,7.4,9.6,92,0.00,,---,0.00,VWS V14.01,2014-07-24 05:11:00,
2014-07-24 01:16:00,73.0,70.9,29.62,SW,217,6.9,10.1,93,0.00,,---,0.00,VWS V14.01,2014-07-24 05:16:00,
2014-07-24 01:21:00,72.9,70.7,29.62,SW,228,4.0,6.9,93,0.00,,---,0.00,VWS V14.01,2014-07-24 05:21:00,
2014-07-24 01:26:00,72.9,70.7,29.62,SW,221,5.8,11.2,93,0.00,,---,0.00,VWS V14.01,2014-07-24 05:26:00,
2014-07-24 01:31:00,72.7,70.9,29.62,SW,226,6.3,9.2,94,0.00,,---,0.00,VWS V14.01,2014-07-24 05:31:00,
2014-07-24 01:36:00,72.7,70.9,29.62,SW,223,6.9,8.3,94,0.00,,---,0.00,VWS V14.01,2014-07-24 05:36:00,
2014-07-24 01:41:00,72.5,71.0,29.62,SSW,209,9.2,9.2,95,0.00,,---,0.00,VWS V14.01,2014-07-24 05:41:00,
2014-07-24 01:46:00,72.3,70.8,29.62,SW,215,7.8,9.2,95,0.00,,---,0.00,VWS V14.01,2014-07-24 05:46:00,
2014-07-24 01:51:00,72.3,71.1,29.62,SSW,200,5.4,7.4,96,0.00,,---,0.00,VWS V14.01,2014-07-24 05:51:00,
2014-07-24 01:56:00,72.3,71.1,29.62,WSW,247,6.7,8.7,96,0.00,,---,0.00,VWS V14.01,2014-07-24 05:56:00,
2014-07-24 02:01:00,72.1,70.9,29.62,SW,224,6.9,7.8,96,0.00,,---,0.00,VWS V14.01,2014-07-24 06:01:00,
2014-07-24 02:06:00,72.1,70.9,29.59,SW,214,6.9,12.1,96,0.00,,---,0.00,VWS V14.01,2014-07-24 06:06:00,
2014-07-24 02:11:00,72.5,71.6,29.59,SW,228,6.7,11.2,97,0.00,,---,0.00,VWS V14.01,2014-07-24 06:11:00,
2014-07-24 02:15:00,72.7,71.8,29.59,SW,234,10.1,10.1,97,0.00,,---,0.00,VWS V14.01,2014-07-24 06:15:00,
2014-07-24 02:20:00,73.0,71.8,29.62,WSW,251,5.8,6.9,96,0.00,,---,0.00,VWS V14.01,2014-07-24 06:20:00,
2014-07-24 02:25:00,73.0,71.8,29.62,SW,228,13.4,14.8,96,0.00,,---,0.00,VWS V14.01,2014-07-24 06:25:00,
2014-07-24 02:30:00,73.0,71.8,29.62,SW,231,12.1,12.1,96,0.00,,---,0.00,VWS V14.01,2014-07-24 06:30:00,
2014-07-24 02:35:00,73.0,71.8,29.62,SW,230,5.8,7.4,96,0.00,,---,0.00,VWS V14.01,2014-07-24 06:35:00,
2014-07-24 02:40:00,73.0,71.5,29.62,WSW,244,7.8,11.0,95,0.00,,---,0.00,VWS V14.01,2014-07-24 06:40:00,
2014-07-24 02:45:00,73.0,71.5,29.62,WSW,248,6.3,7.4,95,0.00,,---,0.00,VWS V14.01,2014-07-24 06:45:00,
2014-07-24 02:50:00,73.0,71.5,29.62,WSW,246,6.9,6.9,95,0.00,,---,0.00,VWS V14.01,2014-07-24 06:50:00,
2014-07-24 02:55:00,72.9,71.3,29.62,WSW,239,5.8,7.8,95,0.00,,---,0.00,VWS V14.01,2014-07-24 06:55:00,
2014-07-24 03:00:00,72.7,71.2,29.62,WSW,246,3.6,4.5,95,0.00,,---,0.00,VWS V14.01,2014-07-24 07:00:00,
2014-07-24 03:05:00,72.7,71.2,29.62,SW,234,5.4,6.3,95,0.00,,---,0.00,VWS V14.01,2014-07-24 07:05:00,
2014-07-24 03:10:00,72.3,70.8,29.62,WSW,237,0.0,3.1,95,0.00,,---,0.00,VWS V14.01,2014-07-24 07:10:00,
2014-07-24 03:15:00,72.0,70.4,29.62,SW,218,0.0,4.9,95,0.00,,---,0.00,VWS V14.01,2014-07-24 07:15:00,
2014-07-24 03:20:00,72.0,70.4,29.59,SW,234,4.5,4.5,95,0.00,,---,0.00,VWS V14.01,2014-07-24 07:20:00,
2014-07-24 03:25:00,72.0,70.8,29.59,WSW,237,0.0,0.0,96,0.00,,---,0.00,VWS V14.01,2014-07-24 07:25:00,
2014-07-24 03:30:00,71.8,70.6,29.59,SW,230,3.6,3.6,96,0.00,,---,0.00,VWS V14.01,2014-07-24 07:30:00,
2014-07-24 03:35:00,72.0,70.8,29.62,SW,234,3.6,4.9,96,0.00,,---,0.00,VWS V14.01,2014-07-24 07:35:00,
2014-07-24 03:40:00,71.8,70.9,29.62,SW,235,6.7,6.7,97,0.00,,---,0.00,VWS V14.01,2014-07-24 07:40:00,
2014-07-24 03:45:00,72.0,71.1,29.62,WSW,246,4.5,4.9,97,0.00,,---,0.00,VWS V14.01,2014-07-24 07:45:00,
2014-07-24 03:50:00,71.8,70.9,29.62,WSW,249,5.4,6.3,97,0.00,,---,0.00,VWS V14.01,2014-07-24 07:50:00,
2014-07-24 03:55:00,71.8,70.9,29.62,West,259,5.8,5.8,97,0.00,,---,0.00,VWS V14.01,2014-07-24 07:55:00,
2014-07-24 04:00:00,71.4,70.5,29.62,SSW,210,4.5,4.9,97,0.00,,---,0.00,VWS V14.01,2014-07-24 08:00:00,
2014-07-24 04:05:00,71.6,70.7,29.62,WSW,249,2.7,4.0,97,0.00,,---,0.00,VWS V14.01,2014-07-24 08:05:00,
2014-07-24 04:10:00,71.4,70.5,29.62,SW,234,0.0,3.1,97,0.00,,---,0.00,VWS V14.01,2014-07-24 08:10:00,
2014-07-24 04:15:00,71.2,70.3,29.62,SW,231,3.1,3.6,97,0.00,,---,0.00,VWS V14.01,2014-07-24 08:15:00,
2014-07-24 04:20:00,71.2,70.3,29.62,SW,236,7.4,7.4,97,0.00,,---,0.00,VWS V14.01,2014-07-24 08:20:00,
2014-07-24 04:25:00,71.1,70.2,29.62,SW,215,3.1,4.9,97,0.00,,---,0.00,VWS V14.01,2014-07-24 08:25:00,
2014-07-24 04:30:00,70.9,70.0,29.62,WSW,241,2.7,3.1,97,0.00,,---,0.00,VWS V14.01,2014-07-24 08:30:00,
2014-07-24 04:35:00,70.9,70.0,29.62,SW,234,0.0,0.0,97,0.00,,---,0.00,VWS V14.01,2014-07-24 08:35:00,
2014-07-24 04:40:00,70.7,69.8,29.62,SW,234,0.0,0.0,97,0.00,,---,0.00,VWS V14.01,2014-07-24 08:40:00,
2014-07-24 04:45:00,70.5,69.6,29.62,SW,232,4.5,4.5,97,0.00,,---,0.00,VWS V14.01,2014-07-24 08:45:00,
2014-07-24 04:50:00,70.5,69.6,29.62,SW,222,2.7,3.6,97,0.00,,---,0.00,VWS V14.01,2014-07-24 08:50:00,
2014-07-24 04:55:00,70.5,69.6,29.62,SW,225,0.0,0.0,97,0.00,,---,0.00,VWS V14.01,2014-07-24 08:55:00,
2014-07-24 05:00:00,70.7,69.8,29.62,SW,224,0.0,0.0,97,0.00,,---,0.00,VWS V14.01,2014-07-24 09:00:00,
2014-07-24 05:05:00,70.5,69.6,29.62,SW,222,3.1,3.1,97,0.00,,---,0.00,VWS V14.01,2014-07-24 09:05:00,
2014-07-24 05:10:00,70.7,69.8,29.62,SW,221,0.0,0.0,97,0.00,,---,0.00,VWS V14.01,2014-07-24 09:10:00,
2014-07-24 05:15:00,70.7,69.8,29.62,SW,221,0.0,0.0,97,0.00,,---,0.00,VWS V14.01,2014-07-24 09:15:00,
2014-07-24 05:20:00,70.9,70.0,29.62,SW,221,0.0,0.0,97,0.00,,---,0.00,VWS V14.01,2014-07-24 09:20:00,
2014-07-24 05:25:00,70.9,70.0,29.62,SW,221,0.0,0.0,97,0.00,,---,0.00,VWS V14.01,2014-07-24 09:25:00,
2014-07-24 05:30:00,71.1,70.2,29.62,SW,221,0.0,0.0,97,0.00,,---,0.00,VWS V14.01,2014-07-24 09:30:00,
2014-07-24 05:35:00,71.2,70.3,29.62,SW,221,0.0,0.0,97,0.00,,---,0.00,VWS V14.01,2014-07-24 09:35:00,
2014-07-24 05:40:00,71.2,70.3,29.62,SW,221,0.0,0.0,97,0.00,,---,0.00,VWS V14.01,2014-07-24 09:40:00,
2014-07-24 05:45:00,71.4,70.5,29.62,WSW,240,4.0,4.0,97,0.00,,---,0.00,VWS V14.01,2014-07-24 09:45:00,
2014-07-24 05:50:00,71.6,70.7,29.62,WSW,240,0.0,3.1,97,0.00,,---,0.00,VWS V14.01,2014-07-24 09:50:00,
2014-07-24 05:55:00,72.0,71.1,29.62,WSW,239,0.0,2.7,97,0.00,,---,0.00,VWS V14.01,2014-07-24 09:55:00,
2014-07-24 06:00:00,72.1,71.2,29.62,WSW,239,0.0,2.7,97,0.00,,---,0.00,VWS V14.01,2014-07-24 10:00:00,
2014-07-24 06:05:00,72.1,71.2,29.62,SW,228,0.0,0.0,97,0.00,,---,0.00,VWS V14.01,2014-07-24 10:05:00,
2014-07-24 06:10:00,71.8,70.9,29.62,WSW,245,4.0,4.5,97,0.00,,---,0.00,VWS V14.01,2014-07-24 10:10:00,
2014-07-24 06:15:00,71.8,70.9,29.62,WSW,246,3.1,3.1,97,0.00,,---,0.00,VWS V14.01,2014-07-24 10:15:00,
2014-07-24 06:20:00,71.8,70.6,29.62,WSW,238,3.1,5.8,96,0.00,,---,0.00,VWS V14.01,2014-07-24 10:20:00,
2014-07-24 06:25:00,72.1,70.9,29.62,WSW,238,0.0,0.0,96,0.00,,---,0.00,VWS V14.01,2014-07-24 10:25:00,
2014-07-24 06:30:00,73.0,71.5,29.62,WSW,238,0.0,2.7,95,0.00,,---,0.00,VWS V14.01,2014-07-24 10:30:00,
2014-07-24 06:35:00,73.4,70.3,29.62,WSW,246,2.7,3.6,90,0.00,,---,0.00,VWS V14.01,2014-07-24 10:35:00,
2014-07-24 06:40:00,73.4,70.0,29.62,WSW,249,0.0,2.7,89,0.00,,---,0.00,VWS V14.01,2014-07-24 10:40:00,
2014-07-24 06:45:00,73.9,70.2,29.62,WNW,286,2.7,3.6,88,0.00,,---,0.00,VWS V14.01,2014-07-24 10:45:00,
2014-07-24 06:50:00,74.8,70.0,29.62,WNW,303,0.0,2.7,85,0.00,,---,0.00,VWS V14.01,2014-07-24 10:50:00,
2014-07-24 06:55:00,75.0,68.4,29.62,NNW,327,3.6,4.0,80,0.00,,---,0.00,VWS V14.01,2014-07-24 10:55:00,
2014-07-24 07:00:00,75.2,68.2,29.62,WNW,302,2.7,6.3,79,0.00,,---,0.00,VWS V14.01,2014-07-24 11:00:00,
2014-07-24 07:05:00,75.4,67.7,29.62,NNW,327,5.8,6.7,77,0.00,,---,0.00,VWS V14.01,2014-07-24 11:05:00,
2014-07-24 07:10:00,76.1,68.4,29.62,NNW,342,4.0,4.9,77,0.00,,---,0.00,VWS V14.01,2014-07-24 11:10:00,
2014-07-24 07:15:00,75.7,67.3,29.62,NW,316,4.9,7.8,75,0.00,,---,0.00,VWS V14.01,2014-07-24 11:15:00,
2014-07-24 07:20:00,75.2,67.5,29.62,NW,305,7.4,7.4,77,0.00,,---,0.00,VWS V14.01,2014-07-24 11:20:00,
2014-07-24 07:25:00,75.6,67.8,29.62,NNW,336,3.6,4.0,77,0.00,,---,0.00,VWS V14.01,2014-07-24 11:25:00,
2014-07-24 07:30:00,75.2,67.1,29.62,NNW,327,5.4,5.4,76,0.00,,---,0.00,VWS V14.01,2014-07-24 11:30:00,
2014-07-24 07:35:00,75.2,67.1,29.62,WNW,300,0.0,8.7,76,0.00,,---,0.00,VWS V14.01,2014-07-24 11:35:00,
2014-07-24 07:40:00,75.0,66.9,29.62,North,356,8.3,9.6,76,0.00,,---,0.00,VWS V14.01,2014-07-24 11:40:00,
2014-07-24 07:45:00,74.1,67.2,29.62,NNW,335,5.8,11.2,79,0.00,,---,0.00,VWS V14.01,2014-07-24 11:45:00,
2014-07-24 07:50:00,74.1,67.6,29.62,NW,312,9.6,10.1,80,0.00,,---,0.00,VWS V14.01,2014-07-24 11:50:00,
2014-07-24 07:55:00,73.8,67.6,29.62,NNW,340,9.2,9.2,81,0.00,,---,0.00,VWS V14.01,2014-07-24 11:55:00,
2014-07-24 08:00:00,73.4,67.6,29.62,NNW,335,14.3,14.3,82,0.00,,---,0.00,VWS V14.01,2014-07-24 12:00:00,
2014-07-24 08:05:00,73.6,68.1,29.62,NNW,330,10.1,13.0,83,0.00,,---,0.00,VWS V14.01,2014-07-24 12:05:00,
2014-07-24 08:10:00,73.4,67.9,29.62,NW,305,4.5,10.5,83,0.00,,---,0.00,VWS V14.01,2014-07-24 12:10:00,
2014-07-24 08:15:00,73.4,68.3,29.62,WNW,299,0.0,6.9,84,0.00,,---,0.00,VWS V14.01,2014-07-24 12:15:00,
2014-07-24 08:20:00,74.3,68.1,29.62,NNW,339,4.0,7.4,81,0.00,,---,0.00,VWS V14.01,2014-07-24 12:20:00,
2014-07-24 08:25:00,75.2,67.5,29.62,WNW,291,4.5,7.8,77,0.00,,---,0.00,VWS V14.01,2014-07-24 12:25:00,
2014-07-24 08:30:00,74.3,67.0,29.62,NNW,345,7.8,10.5,78,0.00,,---,0.00,VWS V14.01,2014-07-24 12:30:00,
2014-07-24 08:35:00,73.8,67.6,29.65,NNW,340,10.5,11.2,81,0.00,,---,0.00,VWS V14.01,2014-07-24 12:35:00,
2014-07-24 08:40:00,74.3,67.4,29.65,North,0,7.8,10.1,79,0.00,,---,0.00,VWS V14.01,2014-07-24 12:40:00,
2014-07-24 08:45:00,74.5,67.9,29.65,NNW,339,10.5,10.5,80,0.00,,---,0.00,VWS V14.01,2014-07-24 12:45:00,
2014-07-24 08:50:00,74.7,67.7,29.65,North,351,9.6,13.4,79,0.00,,---,0.00,VWS V14.01,2014-07-24 12:50:00,
2014-07-24 08:55:00,74.8,67.9,29.65,North,356,13.4,13.9,79,0.00,,---,0.00,VWS V14.01,2014-07-24 12:55:00,
2014-07-24 09:00:00,74.5,67.6,29.65,NW,322,6.7,9.6,79,0.00,,---,0.00,VWS V14.01,2014-07-24 13:00:00,
2014-07-24 09:05:00,74.5,67.6,29.65,WNW,284,8.7,9.6,79,0.00,,---,0.00,VWS V14.01,2014-07-24 13:05:00,
2014-07-24 09:10:00,73.9,67.4,29.65,WNW,285,8.3,11.0,80,0.00,,---,0.00,VWS V14.01,2014-07-24 13:10:00,
2014-07-24 09:15:00,73.2,67.1,29.65,WNW,297,8.3,15.2,81,0.00,,---,0.00,VWS V14.01,2014-07-24 13:15:00,
2014-07-24 09:20:00,73.6,67.4,29.65,North,356,9.6,11.0,81,0.00,,---,0.00,VWS V14.01,2014-07-24 13:20:00,
2014-07-24 09:25:00,73.9,67.0,29.65,NW,317,9.6,11.2,79,0.00,,---,0.00,VWS V14.01,2014-07-24 13:25:00,
2014-07-24 09:30:00,74.3,67.0,29.65,NNW,339,11.0,12.5,78,0.00,,---,0.00,VWS V14.01,2014-07-24 13:30:00,
2014-07-24 09:35:00,74.3,66.6,29.65,North,5,7.8,9.6,77,0.00,,---,0.00,VWS V14.01,2014-07-24 13:35:00,
2014-07-24 09:40:00,73.9,66.7,29.65,North,8,11.0,14.3,78,0.00,,---,0.00,VWS V14.01,2014-07-24 13:40:00,
2014-07-24 09:44:00,74.7,67.3,29.65,North,0,12.5,12.5,78,0.00,,---,0.00,VWS V14.01,2014-07-24 13:44:00,
2014-07-24 09:49:00,74.3,66.6,29.65,NNW,340,13.0,13.0,77,0.00,,---,0.00,VWS V14.01,2014-07-24 13:49:00,
2014-07-24 09:54:00,73.9,67.0,29.65,North,3,12.1,13.4,79,0.00,,---,0.00,VWS V14.01,2014-07-24 13:54:00,
2014-07-24 09:59:00,73.8,67.2,29.65,NW,315,3.6,6.7,80,0.00,,---,0.00,VWS V14.01,2014-07-24 13:59:00,
2014-07-24 10:04:00,73.8,66.8,29.65,NNW,338,5.8,9.2,79,0.00,,---,0.00,VWS V14.01,2014-07-24 14:04:00,
2014-07-24 10:09:00,73.8,67.2,29.65,NW,319,11.2,11.2,80,0.00,,---,0.00,VWS V14.01,2014-07-24 14:09:00,
2014-07-24 10:14:00,73.4,66.9,29.65,NW,310,12.1,12.5,80,0.00,,---,0.00,VWS V14.01,2014-07-24 14:14:00,
2014-07-24 10:19:00,73.0,66.9,29.68,NW,313,4.5,10.5,81,0.00,,---,0.00,VWS V14.01,2014-07-24 14:19:00,
2014-07-24 10:24:00,72.7,66.5,29.68,NNE,27,8.3,10.5,81,0.00,,---,0.00,VWS V14.01,2014-07-24 14:24:00,
2014-07-24 10:29:00,72.3,66.9,29.68,NNW,330,13.9,13.9,83,0.00,,---,0.00,VWS V14.01,2014-07-24 14:29:00,
2014-07-24 10:34:00,72.7,67.2,29.68,NNE,12,3.6,9.2,83,0.00,,---,0.00,VWS V14.01,2014-07-24 14:34:00,
2014-07-24 10:39:00,73.4,67.2,29.68,NW,307,15.2,15.2,81,0.00,,---,0.00,VWS V14.01,2014-07-24 14:39:00,
2014-07-24 10:44:00,73.8,66.8,29.68,NNW,328,11.2,13.0,79,0.00,,---,0.00,VWS V14.01,2014-07-24 14:44:00,
2014-07-24 10:49:00,73.9,66.7,29.68,NW,309,14.8,14.8,78,0.00,,---,0.00,VWS V14.01,2014-07-24 14:49:00,
2014-07-24 10:54:00,73.9,66.7,29.68,NW,324,6.7,9.2,78,0.00,,---,0.00,VWS V14.01,2014-07-24 14:54:00,
2014-07-24 10:59:00,73.0,66.2,29.68,NNW,331,8.7,12.1,79,0.00,,---,0.00,VWS V14.01,2014-07-24 14:59:00,
2014-07-24 11:04:00,72.0,66.5,29.68,NW,309,11.0,11.0,83,0.00,,---,0.00,VWS V14.01,2014-07-24 15:04:00,
2014-07-24 11:09:00,71.2,65.8,29.68,North,356,7.4,12.1,83,0.00,,---,0.00,VWS V14.01,2014-07-24 15:09:00,
2014-07-24 11:14:00,72.1,67.0,29.68,NW,305,12.5,12.5,84,0.00,,---,0.00,VWS V14.01,2014-07-24 15:14:00,
2014-07-24 11:19:00,71.6,66.2,29.68,North,351,9.2,11.6,83,0.00,,---,0.00,VWS V14.01,2014-07-24 15:19:00,
2014-07-24 11:24:00,71.1,65.6,29.68,NNW,327,10.1,11.6,83,0.00,,---,0.00,VWS V14.01,2014-07-24 15:24:00,
2014-07-24 11:29:00,72.5,66.3,29.68,WNW,302,5.4,5.8,81,0.00,,---,0.00,VWS V14.01,2014-07-24 15:29:00,
2014-07-24 11:34:00,72.1,65.3,29.68,NW,323,11.6,11.6,79,0.00,,---,0.00,VWS V14.01,2014-07-24 15:34:00,
2014-07-24 11:39:00,71.8,65.3,29.68,WNW,302,10.1,10.1,80,0.00,,---,0.00,VWS V14.01,2014-07-24 15:39:00,
2014-07-24 11:44:00,72.3,65.8,29.68,NW,310,10.1,10.1,80,0.00,,---,0.00,VWS V14.01,2014-07-24 15:44:00,
2014-07-24 11:49:00,72.3,65.1,29.68,WNW,299,6.9,13.0,78,0.00,,---,0.00,VWS V14.01,2014-07-24 15:49:00,